Regional Weather Roundup
Issued by NWS

Home | Current Version | Previous Version | Text Only | Print | Product List | Glossary On
Versions: 1 2 3 4 5 6 7 8 9 10 11 12 13 14 15 16 17 18 19 20 21 22 23 24 25 26 27 28 29 30 31 32 33 34 35 36 37 38 39 40 41 42 43 44 45 46 47 48 49 50
848
ASCA44 KEWX 270020
RWRMX

LATIN AMERICA AND CARIBBEAN REGIONAL WEATHER ROUNDUP
NATIONAL WEATHER SERVICE AUSTIN/SAN ANTONIO TX
700 PM CDT MON SEP 26 2016

NOTE: "FAIR" INDICATED FEW OR NO CLOUDS BELOW 12,000 FEET WITH NO
SIGNIFICANT WEATHER AND/OR OBSTRUCTIONS TO VISIBILITY.

BAJA CALIFORNIA

CITY           SKY/WX    TMP DP  RH WIND       PRES   REMARKS
LORETO         MOSUNNY   79  73  83 S6        29.80F
LA PAZ         PTSUNNY   86  70  58 NW7       29.80R HX  90
MEXICALI       CLOUDY    95  43  16 E16       29.83F BLWGDUSTHX  91
S.J. DEL CABO  MOSUNNY   82  70  65 E13       29.81S
TIJUANA        PTSUNNY   95  34  11 N7        29.89F HX  90

NORTHWESTERN MEXICO

CITY           SKY/WX    TMP DP  RH WIND       PRES   REMARKS
CULIACAN       MOSUNNY   91  73  55 W12       29.74F HX 100
DURANGO        PTSUNNY   70  57  64 NE9       30.15R
GUAYMAS        MOSUNNY   88  72  58 W10       29.73F HX  94
HERMOSILLO     PTSUNNY   91  64  40 W13       29.82R HX  93
CD. JUAREZ     LGT RAIN  55  52  88 E12       30.25S
LOS MOCHIS     PTSUNNY   86  66  51 W13       29.78F
OBREGON        PTSUNNY   90  59  35 W8        29.75S

NORTHEASTERN MEXICO

CITY           SKY/WX    TMP DP  RH WIND       PRES   REMARKS
CHIHUAHUA      DRIZZLE   55  55 100 N13       30.23S
MATAMOROS      MOCLDY    82  73  74 NE9       29.92R
MONCLOVA         N/A    N/A N/A N/A MISG        N/A
MONTERREY      MOCLDY    70  68  94 CALM      30.00R
NUEVO LAREDO   PTCLDY    75  73  94 CALM      29.98S
PIEDRAS NEGRAS MOCLDY    68  63  83 NW14      30.09
REYNOSA        MOCLDY    77  70  78 NE6       29.94R
SALTILLO       CLOUDY    63  59  88 N12       30.17S
TORREON        MOCLDY    79  63  57 N8        30.05F
CD. VICTORIA   MOCLDY    79  77  94 NW3       29.93S

WESTERN MEXICO

CITY           SKY/WX    TMP DP  RH WIND       PRES   REMARKS
AGUASCALIENTES CLOUDY    75  52  43 NE2       30.13R
COLIMA         PTSUNNY   79  73  83 SW12      29.91R
DEL BAJIO        N/A    N/A N/A N/A MISG        N/A
GUADALAJARA    MOCLDY    77  61  57 S3        30.04R
MANZANILLO     MOSUNNY   86  79  79 W12       29.73R HX  99
MAZATLAN       MOSUNNY   86  73  66 W14       29.76S HX  93
P. VALLARTA      N/A    N/A N/A N/A MISG        N/A
URUAPAN        DRIZZLE   66  63  88 CALM      30.07R
ZACATECAS      MOCLDY    66  54  63 E6        30.19S

CENTRAL MEXICO

CITY           SKY/WX    TMP DP  RH WIND       PRES   REMARKS
CUERNAVACA     CLOUDY    75  64  69 W2        29.99S
MEXICO CITY    CLOUDY    68  52  56 N10       30.20S
MORELIA        MOCLDY    75  57  53 CALM      30.08S
POZA RICA      MOCLDY   N/A N/A N/A SW5       29.92S
PUEBLA         CLOUDY    66  52  59 NE9       30.22R
QUERETARO      MOCLDY    72  55  56 E17       30.19
S. LUIS POTOSI PTCLDY    73  52  46 E16       30.14R
TAMPICO        MOCLDY    82  75  78 N17       29.88R
TOLUCA         CLOUDY    64  50  59 E14       30.25S

SOUTHERN MEXICO

CITY           SKY/WX    TMP DP  RH WIND       PRES   REMARKS
ACAPULCO       MOCLDY    84  75  74 SE3       29.78S HX  92
B. DE HUATULCO MOCLDY    79  72  78 E10       29.88
OAXACA         CLOUDY    68  61  77 CALM      30.11R
P. ESCONDIDO   MOCLDY    79  73  83 N6        29.90S
VERACRUZ       MOCLDY    82  75  78 NE12      29.83R
ZIHUATANEJO      N/A    N/A N/A N/A MISG        N/A

YUCATAN PENINSULA

CITY           SKY/WX    TMP DP  RH WIND       PRES   REMARKS
CAMPECHE       LGT RAIN  77  73  88 S6        29.81F
CANCUN         MOCLDY    82  79  89 NE3       29.90R HX  93
CHETUMAL       CLOUDY    84  77  79 E6        29.85R HX  94
CD. DEL CARMEN CLOUDY    84  77  79 N15       29.82R THUNDER HX  94
COZUMEL        MOCLDY    82  77  83 MISG      29.88S HX  91
MERIDA         MOCLDY    75  70  83 E9        29.89R
MINATITLAN     MOCLDY    77  72  83 N12G29    29.83R
TAPACHULA      MOCLDY    82  73  74 NE5       29.78R
TUX. GUTIERREZ CLOUDY    73  72  94 NW6       29.88R
VILLAHERMOSA   MOCLDY    82  75  78 N5        29.84R

CENTRAL AMERICA

CITY           SKY/WX    TMP DP  RH WIND       PRES   REMARKS
BELIZE CITY    PTCLDY    84  79  84 E6        29.85R HX  96
MANAGUA        PTCLDY    82  75  78 CALM      29.77R THUNDER

CARIBBEAN

CITY           SKY/WX    TMP DP  RH WIND       PRES   REMARKS
ARUBA          PTCLDY    84  79  84 E20       29.80S HX  96
CURACAO        PTCLDY    84  79  84 E14       29.86R HX  96
KINGSTON       PTCLDY    86  79  79 E6        29.86S HX  99
NASSAU         MOCLDY    81  77  89 CALM      29.97R
SAN JUAN       PTCLDY    82  77  83 E9        29.95R HX  91
SANTO DOMINGO  PTCLDY    81  75  83 VRB3      29.92R
ST. CROIX      CLEAR     81  75  83 NE8       29.95R
ST. KITTS      MOCLDY    82  79  89 E13       29.94R HX  93
ST. THOMAS     CLEAR     82  77  83 E6        29.94R HX  91

$$





USA.gov is the U.S. government's official web portal to all federal, state and local government web resources and services.